Terminal Aerodrome Forecast
Issued by NWS

Home | Current Version | Previous Version | Text Only | Print | Product List | Glossary On
Versions: 1 2 3 4 5 6 7 8 9 10 11 12 13 14 15 16 17 18 19 20 21 22
000
FTUS45 KGJT 161120
TAFMTJ
TAF
KMTJ 161120Z 1612/1712 13005KT P6SM FEW120 BKN150
     FM161500 30008KT P6SM SCT070 OVC100
     FM170200 12006KT P6SM SCT100 BKN200
     FM170700 15007KT P6SM FEW200=

USA.gov is the U.S. government's official web portal to all federal, state and local government web resources and services.